Terminal Aerodrome Forecast
Issued by NWS St Louis, MO

Home | Current Version | Previous Version | Text Only | Print | Product List | Glossary On
Versions: 1 2 3 4 5 6 7 8 9 10 11 12 13 14 15 16 17 18 19 20 21 22 23 24 25 26 27 28
000
FTUS43 KLSX 140253 AAA
TAFSTL
TAF AMD
KSTL 140253Z 1403/1506 32014G22KT P6SM OVC035
     FM140600 32012KT P6SM BKN025
     FM141200 34008KT P6SM SCT030
     FM141400 33005KT P6SM SCT070=

USA.gov is the U.S. government's official web portal to all federal, state and local government web resources and services.